When you browse on this site, cookies collect data to enhance your experience and personalize the content and advertising you see.
Visit our Privacy Policy to learn more. By continuing to use the site, you agree to this use of cookies and data.
  • In Netherlands
  • List of Countries
  • For 7 days
  • Water Temperature
  • Weather Map
  • Weather Widgets
  • user-avatar
    Login

    Hourly Weather Smolan

    Today, 18 August, Sunday

    Time Temperature Precipitation Wind Pressure Humidity
    00:00 +11°C° 0 mm 1 mps 655 mmHg 78%
    01:00 +11°C° 0 mm 1 mps 655 mmHg 77%
    02:00 +11°C° 0 mm 1 mps 655 mmHg 78%
    03:00 +11°C° 0 mm 1 mps 655 mmHg 77%
    04:00 +11°C° 0 mm 1 mps 655 mmHg 77%
    05:00 +11°C° 0 mm 1 mps 655 mmHg 76%
    06:00 +13°C° 0 mm 1 mps 656 mmHg 70%
    07:00 +15°C° 0 mm 1 mps 657 mmHg 64%
    08:00 +18°C° 0 mm 1 mps 657 mmHg 58%
    09:00 +19°C° 0 mm 1 mps 658 mmHg 52%
    10:00 +21°C° 0 mm 1 mps 659 mmHg 47%
    11:00 +23°C° 0 mm 1 mps 659 mmHg 41%
    12:00 +23°C° 0 mm 2 mps 659 mmHg 41%
    13:00 +23°C° 0 mm 2 mps 659 mmHg 41%
    14:00 +23°C° 0 mm 2 mps 659 mmHg 41%
    15:00 +23°C° 0 mm 2 mps 658 mmHg 43%
    16:00 +23°C° 0 mm 2 mps 658 mmHg 44%
    17:00 +22°C° 0 mm 1 mps 658 mmHg 45%
    18:00 +20°C° 0 mm 1 mps 657 mmHg 52%
    19:00 +18°C° 0 mm 1 mps 657 mmHg 60%
    20:00 +15°C° 0 mm 1 mps 656 mmHg 67%
    21:00 +14°C° 0 mm 1 mps 656 mmHg 67%
    22:00 +14°C° 0 mm 1 mps 656 mmHg 67%
    23:00 +14°C° 0 mm 1 mps 656 mmHg 67%

    Tomorrow, 19 August, Monday

    Time Temperature Precipitation Wind Pressure Humidity
    00:00 +13°C° 0 mm 1 mps 656 mmHg 67%
    01:00 +13°C° 0 mm 1 mps 656 mmHg 67%
    02:00 +13°C° 0 mm 1 mps 656 mmHg 67%
    03:00 +13°C° 0 mm 1 mps 656 mmHg 67%
    04:00 +12°C° 0 mm 1 mps 656 mmHg 67%
    05:00 +12°C° 0 mm 1 mps 657 mmHg 67%
    06:00 +14°C° 0 mm 1 mps 657 mmHg 63%
    07:00 +16°C° 0 mm 1 mps 658 mmHg 58%
    08:00 +19°C° 0 mm 1 mps 659 mmHg 54%
    09:00 +21°C° 0 mm 1 mps 659 mmHg 50%
    10:00 +21°C° 0 mm 2 mps 660 mmHg 45%
    11:00 +23°C° 0 mm 2 mps 660 mmHg 41%
    12:00 +24°C° 0 mm 2 mps 660 mmHg 39%
    13:00 +24°C° 0 mm 3 mps 660 mmHg 38%
    14:00 +25°C° 0 mm 3 mps 660 mmHg 36%
    15:00 +24°C° 0 mm 3 mps 660 mmHg 37%
    16:00 +24°C° 0 mm 3 mps 659 mmHg 38%
    17:00 +24°C° 0 mm 3 mps 659 mmHg 38%
    18:00 +20°C° 0 mm 2 mps 658 mmHg 45%
    19:00 +18°C° 0 mm 2 mps 658 mmHg 51%
    20:00 +15°C° 0 mm 1 mps 658 mmHg 57%
    21:00 +15°C° 0 mm 1 mps 658 mmHg 57%
    22:00 +14°C° 0 mm 1 mps 658 mmHg 58%
    23:00 +14°C° 0 mm 1 mps 658 mmHg 58%

    Day after tomorrow, 20 August, Tuesday

    Time Temperature Precipitation Wind Pressure Humidity
    00:00 +14°C° 0 mm 1 mps 658 mmHg 59%
    01:00 +13°C° 0 mm 1 mps 658 mmHg 60%
    02:00 +13°C° 0 mm 1 mps 658 mmHg 61%
    03:00 +13°C° 0 mm 1 mps 658 mmHg 62%
    04:00 +13°C° 0 mm 1 mps 658 mmHg 63%
    05:00 +13°C° 0 mm 1 mps 657 mmHg 63%
    06:00 +15°C° 0 mm 1 mps 658 mmHg 59%
    07:00 +18°C° 0 mm 1 mps 659 mmHg 55%
    08:00 +20°C° 0 mm 1 mps 660 mmHg 51%
    09:00 +21°C° 0 mm 2 mps 661 mmHg 46%
    10:00 +23°C° 0 mm 2 mps 661 mmHg 42%
    11:00 +24°C° 0 mm 3 mps 661 mmHg 37%
    12:00 +25°C° 0 mm 3 mps 661 mmHg 37%
    13:00 +25°C° 0 mm 4 mps 661 mmHg 36%
    14:00 +26°C° 0 mm 4 mps 661 mmHg 36%
    15:00 +25°C° 0 mm 4 mps 660 mmHg 38%
    16:00 +25°C° 0 mm 4 mps 660 mmHg 39%
    17:00 +23°C° 0 mm 4 mps 660 mmHg 41%
    18:00 +21°C° 0 mm 3 mps 659 mmHg 47%
    19:00 +19°C° 0 mm 2 mps 659 mmHg 53%
    20:00 +16°C° 0 mm 2 mps 658 mmHg 60%
    21:00 +16°C° 0 mm 2 mps 658 mmHg 60%
    22:00 +15°C° 0 mm 1 mps 659 mmHg 60%
    23:00 +15°C° 0 mm 1 mps 659 mmHg 60%

    21 August, Wednesday

    Time Temperature Precipitation Wind Pressure Humidity
    00:00 +14°C° 0 mm 2 mps 658 mmHg 60%
    01:00 +14°C° 0 mm 2 mps 658 mmHg 60%
    02:00 +14°C° 0 mm 2 mps 658 mmHg 60%
    03:00 +14°C° 0 mm 2 mps 658 mmHg 60%
    04:00 +13°C° 0 mm 2 mps 658 mmHg 61%
    05:00 +13°C° 0 mm 2 mps 657 mmHg 62%
    06:00 +15°C° 0 mm 2 mps 658 mmHg 58%
    07:00 +17°C° 0 mm 2 mps 659 mmHg 54%
    08:00 +19°C° 0 mm 2 mps 660 mmHg 50%
    09:00 +21°C° 0 mm 2 mps 660 mmHg 47%
    10:00 +24°C° 0 mm 2 mps 661 mmHg 44%
    11:00 +25°C° 0 mm 2 mps 661 mmHg 41%
    12:00 +26°C° 0 mm 2 mps 661 mmHg 41%
    13:00 +26°C° 0 mm 2 mps 660 mmHg 41%
    14:00 +27°C° 0 mm 3 mps 660 mmHg 41%
    15:00 +26°C° 0 mm 3 mps 660 mmHg 43%
    16:00 +26°C° 0 mm 3 mps 659 mmHg 45%
    17:00 +26°C° 0 mm 3 mps 659 mmHg 47%
    18:00 +23°C° 0 mm 2 mps 658 mmHg 57%
    19:00 +20°C° 0 mm 2 mps 658 mmHg 66%
    20:00 +19°C° 0 mm 1 mps 657 mmHg 76%
    21:00 +18°C° 0 mm 1 mps 657 mmHg 76%
    22:00 +17°C° 0 mm 2 mps 658 mmHg 75%
    23:00 +17°C° 0 mm 2 mps 658 mmHg 75%

    22 August, Thursday

    Time Temperature Precipitation Wind Pressure Humidity
    00:00 +16°C° 0 mm 2 mps 658 mmHg 74%
    01:00 +16°C° 0 mm 2 mps 657 mmHg 73%
    02:00 +16°C° 0 mm 2 mps 657 mmHg 71%
    03:00 +16°C° 0 mm 2 mps 657 mmHg 71%
    04:00 +16°C° 0 mm 2 mps 657 mmHg 70%
    05:00 +15°C° 0 mm 2 mps 657 mmHg 70%
    06:00 +17°C° 0 mm 2 mps 658 mmHg 64%
    07:00 +19°C° 0 mm 2 mps 658 mmHg 59%
    08:00 +21°C° 0 mm 2 mps 659 mmHg 54%
    09:00 +24°C° 0 mm 2 mps 659 mmHg 48%
    10:00 +25°C° 0 mm 3 mps 660 mmHg 42%
    11:00 +26°C° 0 mm 4 mps 660 mmHg 37%
    12:00 +27°C° 0 mm 3 mps 660 mmHg 35%
    13:00 +27°C° 0 mm 3 mps 660 mmHg 34%
    14:00 +28°C° 0 mm 3 mps 660 mmHg 32%
    15:00 +27°C° 0 mm 3 mps 659 mmHg 34%
    16:00 +27°C° 0 mm 3 mps 659 mmHg 35%
    17:00 +26°C° 0 mm 3 mps 659 mmHg 37%
    18:00 +24°C° 0 mm 3 mps 658 mmHg 43%
    19:00 +21°C° 0 mm 2 mps 658 mmHg 49%
    20:00 +18°C° 0 mm 2 mps 657 mmHg 54%
    21:00 +18°C° 0 mm 2 mps 657 mmHg 55%
    22:00 +17°C° 0 mm 2 mps 657 mmHg 56%
    23:00 +17°C° 0 mm 2 mps 658 mmHg 56%

    23 August, Friday

    Time Temperature Precipitation Wind Pressure Humidity
    00:00 +17°C° 0 mm 2 mps 657 mmHg 59%
    01:00 +16°C° 0 mm 2 mps 657 mmHg 62%
    02:00 +16°C° 0 mm 2 mps 657 mmHg 65%
    03:00 +16°C° 0 mm 2 mps 657 mmHg 67%
    04:00 +16°C° 0 mm 2 mps 657 mmHg 69%
    05:00 +15°C° 0 mm 2 mps 657 mmHg 71%
    06:00 +17°C° 0 mm 2 mps 658 mmHg 65%
    07:00 +19°C° 0 mm 2 mps 658 mmHg 59%
    08:00 +21°C° 0 mm 2 mps 659 mmHg 53%
    09:00 +24°C° 0 mm 2 mps 660 mmHg 49%
    10:00 +25°C° 0 mm 3 mps 660 mmHg 44%
    11:00 +26°C° 0 mm 3 mps 660 mmHg 39%
    12:00 +27°C° 0 mm 3 mps 660 mmHg 39%
    13:00 +27°C° 0 mm 4 mps 660 mmHg 38%
    14:00 +28°C° 0 mm 4 mps 660 mmHg 38%
    15:00 +27°C° 0 mm 4 mps 659 mmHg 39%
    16:00 +27°C° 0 mm 4 mps 659 mmHg 41%
    17:00 +26°C° 0 mm 4 mps 659 mmHg 43%
    18:00 +24°C° 0 mm 3 mps 658 mmHg 49%
    19:00 +21°C° 0 mm 3 mps 658 mmHg 56%
    20:00 +19°C° 0 mm 2 mps 657 mmHg 62%
    21:00 +18°C° 0 mm 2 mps 657 mmHg 62%
    22:00 +18°C° 0 mm 2 mps 658 mmHg 63%
    23:00 +17°C° 0 mm 2 mps 658 mmHg 63%
    Show more